Puyallup, WA

11:51 AM PDT on July 27, 2017 (GMT -0700)
Pierce County - Thun Field

Weather History for KPLU - March, 2013

Change the Weather History Date:

Wednesday, March 27, 2013

  Actual Average (KTCM) Record (KTCM)
Temperature  
Mean Temperature 48 °F -  
Max Temperature 57 °F 52 °F 72 °F (1994)
Min Temperature 39 °F 34 °F 25 °F (1975)
Degree Days  
Heating Degree Days 17    
Moisture  
Dew Point 45 °F    
Average Humidity 89    
Maximum Humidity 100    
Minimum Humidity 67    
Precipitation  
Precipitation 0.00 in - - ()
Sea Level Pressure  
Sea Level Pressure 29.96 in    
Wind  
Wind Speed 0 mph (NE)    
Max Wind Speed 6 mph    
Max Gust Speed -    
Visibility 10 miles    
Events Rain    
Averages and records for this station are not official NWS values.
T = Trace of Precipitation, MM = Missing Value Source: NWS Daily Summary

Daily Weather History Graph

Daily Weather History Graph

Search for Another Location

Airport or City:

Trip Planner

Search our weather history database for the weather conditions in past years. The results will help you decide how hot, cold, wet, or windy it might be!

Date:

Astronomy

Mar. 27, 2013 Rise Set
Actual Time 6:57 AM PDT 7:32 PM PDT
Civil Twilight 6:26 AM PDT 8:02 PM PDT
Nautical Twilight 5:50 AM PDT 8:39 PM PDT
Astronomical Twilight 5:12 AM PDT 9:17 PM PDT
Moon 8:28 PM PDT 6:48 AM PDT
Length of Visible Light 13h 36m
Length of Day
12h 34m
Full, 100% of the Moon is Illuminated
Mar 27
Full
Apr 2
Last Quarter
Apr 10
New
Apr 18
First Quarter
Apr 25
Full

Hourly Weather History & Observations

Time (PDT) Temp. Dew Point Humidity Pressure Visibility Wind Dir Wind Speed Gust Speed Precip Events Conditions
12:15 AM 48.2 °F 44.6 °F 87% 29.98 in 10.0 mi Calm Calm - N/A Rain Light Rain
12:35 AM 46.4 °F 46.4 °F 100% 29.98 in 10.0 mi Calm Calm - N/A   Mostly Cloudy
12:55 AM 46.4 °F 46.4 °F 100% 29.98 in 9.0 mi Calm Calm - N/A Rain Light Rain
1:15 AM 46.4 °F 46.4 °F 100% 29.97 in 10.0 mi Calm Calm - N/A   Mostly Cloudy
1:35 AM 46.4 °F 46.4 °F 100% 29.97 in 10.0 mi Calm Calm - N/A Rain Light Rain
1:55 AM 46.4 °F 46.4 °F 100% 29.97 in 10.0 mi Calm Calm - N/A   Mostly Cloudy
2:15 AM 46.4 °F 46.4 °F 100% 29.97 in 10.0 mi Calm Calm - N/A   Mostly Cloudy
2:35 AM 44.6 °F 44.6 °F 100% 29.97 in 10.0 mi Calm Calm - N/A   Mostly Cloudy
2:55 AM 46.4 °F 46.4 °F 100% 29.96 in 10.0 mi Calm Calm - N/A   Mostly Cloudy
3:15 AM 46.4 °F 46.4 °F 100% 29.96 in 10.0 mi Calm Calm - N/A   Overcast
3:35 AM 44.6 °F 44.6 °F 100% 29.95 in 10.0 mi Calm Calm - N/A   Mostly Cloudy
3:55 AM 44.6 °F 44.6 °F 100% 29.95 in 10.0 mi Calm Calm - N/A   Mostly Cloudy
4:15 AM 44.6 °F 44.6 °F 100% 29.95 in 10.0 mi Calm Calm - N/A   Mostly Cloudy
4:35 AM 44.6 °F 44.6 °F 100% 29.95 in 10.0 mi Calm Calm - N/A   Mostly Cloudy
4:55 AM 44.6 °F 44.6 °F 100% 29.94 in 10.0 mi Calm Calm - N/A   Mostly Cloudy
5:15 AM 44.6 °F 44.6 °F 100% 29.95 in 10.0 mi Calm Calm - N/A   Mostly Cloudy
5:35 AM 42.8 °F 42.8 °F 100% 29.94 in 10.0 mi Calm Calm - N/A   Mostly Cloudy
5:55 AM 42.8 °F 42.8 °F 100% 29.94 in 10.0 mi Calm Calm - N/A   Overcast
6:15 AM 41.0 °F 41.0 °F 100% 29.94 in 10.0 mi Calm Calm - N/A   Overcast
6:35 AM 41.0 °F 41.0 °F 100% 29.94 in 10.0 mi Calm Calm - N/A   Mostly Cloudy
6:55 AM 42.8 °F 42.8 °F 100% 29.94 in 10.0 mi Calm Calm - N/A   Mostly Cloudy
7:15 AM 44.6 °F 44.6 °F 100% 29.94 in 10.0 mi Calm Calm - N/A   Mostly Cloudy
7:35 AM 44.6 °F 44.6 °F 100% 29.94 in 10.0 mi Calm Calm - N/A   Overcast
7:55 AM 44.6 °F 44.6 °F 100% 29.95 in 10.0 mi Calm Calm - N/A   Mostly Cloudy
8:15 AM 46.4 °F 44.6 °F 93% 29.95 in 10.0 mi Calm Calm - N/A   Overcast
8:35 AM 46.4 °F 46.4 °F 100% 29.95 in 10.0 mi Calm Calm - N/A   Mostly Cloudy
8:55 AM 46.4 °F 46.4 °F 100% 29.95 in 10.0 mi Calm Calm - N/A   Mostly Cloudy
9:15 AM 48.2 °F 46.4 °F 93% 29.95 in 10.0 mi Calm Calm - N/A   Mostly Cloudy
9:35 AM 48.2 °F 46.4 °F 93% 29.95 in 10.0 mi Calm Calm - N/A   Mostly Cloudy
10:15 AM 50.0 °F 46.4 °F 87% 29.96 in 10.0 mi Calm Calm - N/A   Overcast
10:35 AM 50.0 °F 46.4 °F 87% 29.96 in 10.0 mi Calm Calm - N/A   Mostly Cloudy
10:55 AM 50.0 °F 46.4 °F 87% 29.96 in 10.0 mi Calm Calm - N/A   Mostly Cloudy
11:15 AM 53.6 °F 46.4 °F 77% 29.96 in 10.0 mi Calm Calm - N/A   Mostly Cloudy
11:35 AM 53.6 °F 44.6 °F 72% 29.97 in 10.0 mi Calm Calm - N/A   Mostly Cloudy
11:55 AM 53.6 °F 44.6 °F 72% 29.96 in 10.0 mi Calm Calm - N/A   Mostly Cloudy
12:15 PM 53.6 °F 46.4 °F 77% 29.96 in 9.0 mi Calm Calm - N/A Rain Light Rain
12:35 PM 53.6 °F 48.2 °F 82% 29.96 in 10.0 mi Calm Calm - N/A Rain Light Rain
1:15 PM 55.4 °F 46.4 °F 72% 29.96 in 10.0 mi Calm Calm - N/A   Mostly Cloudy
1:35 PM 55.4 °F 44.6 °F 67% 29.96 in 10.0 mi Calm Calm - N/A   Overcast
1:55 PM 55.4 °F 44.6 °F 67% 29.96 in 10.0 mi Calm Calm - N/A   Overcast
2:15 PM 55.4 °F 44.6 °F 67% 29.96 in 10.0 mi Calm Calm - N/A   Mostly Cloudy
2:35 PM 55.4 °F 44.6 °F 67% 29.96 in 10.0 mi Calm Calm - N/A   Overcast
2:55 PM 55.4 °F 44.6 °F 67% 29.96 in 10.0 mi Calm Calm - N/A   Mostly Cloudy
3:15 PM 55.4 °F 44.6 °F 67% 29.97 in 10.0 mi Calm Calm - N/A   Scattered Clouds
3:35 PM 55.4 °F 44.6 °F 67% 29.97 in 10.0 mi North 3.5 mph - N/A   Scattered Clouds
3:55 PM 55.4 °F 44.6 °F 67% 29.96 in 10.0 mi Calm Calm - N/A   Scattered Clouds
4:15 PM 55.4 °F 44.6 °F 67% 29.96 in 10.0 mi NNE 4.6 mph - N/A   Mostly Cloudy
4:35 PM 57.2 °F 46.4 °F 67% 29.96 in 10.0 mi ENE 5.8 mph - N/A   Mostly Cloudy
4:55 PM 55.4 °F 46.4 °F 72% 29.96 in 10.0 mi Calm Calm - N/A   Mostly Cloudy
5:15 PM 55.4 °F 46.4 °F 72% 29.96 in 10.0 mi ENE 3.5 mph - N/A   Mostly Cloudy
5:35 PM 53.6 °F 46.4 °F 77% 29.97 in 10.0 mi Calm Calm - N/A   Mostly Cloudy
5:55 PM 53.6 °F 44.6 °F 72% 29.97 in 10.0 mi Calm Calm - N/A   Mostly Cloudy
6:15 PM 53.6 °F 44.6 °F 72% 29.97 in 10.0 mi Calm Calm - N/A   Mostly Cloudy
6:35 PM 53.6 °F 46.4 °F 77% 29.96 in 10.0 mi Calm Calm - N/A Rain Light Rain
6:55 PM 53.6 °F 46.4 °F 77% 29.96 in 10.0 mi Calm Calm - N/A   Partly Cloudy
7:15 PM 51.8 °F 46.4 °F 82% 29.96 in 10.0 mi Calm Calm - N/A   Scattered Clouds
7:35 PM 50.0 °F 46.4 °F 87% 29.96 in 10.0 mi Calm Calm - N/A   Scattered Clouds
7:55 PM 46.4 °F 46.4 °F 100% 29.96 in 10.0 mi Calm Calm - N/A   Scattered Clouds
8:15 PM 44.6 °F 44.6 °F 100% 29.96 in 10.0 mi Calm Calm - N/A   Scattered Clouds
8:35 PM 46.4 °F 46.4 °F 100% 29.96 in 10.0 mi Calm Calm - N/A   Mostly Cloudy
8:55 PM 44.6 °F 44.6 °F 100% 29.97 in 10.0 mi Calm Calm - N/A   Scattered Clouds
9:15 PM 44.6 °F 44.6 °F 100% 29.97 in 10.0 mi Calm Calm - N/A   Scattered Clouds
9:35 PM 42.8 °F 42.8 °F 100% 29.97 in 10.0 mi Calm Calm - N/A   Scattered Clouds
10:15 PM 42.8 °F 42.8 °F 100% 29.98 in 10.0 mi Calm Calm - N/A   Scattered Clouds
10:35 PM 41.0 °F 41.0 °F 100% 29.98 in 5.0 mi Calm Calm - N/A   Scattered Clouds
10:55 PM 39.2 °F 39.2 °F 100% 29.99 in 3.0 mi Calm Calm - N/A   Mostly Cloudy
11:15 PM 41.0 °F 41.0 °F 100% 29.99 in 4.0 mi Calm Calm - N/A   Mostly Cloudy
11:35 PM 41.0 °F 41.0 °F 100% 29.99 in 9.0 mi Calm Calm - N/A   Mostly Cloudy
11:55 PM 41.0 °F 41.0 °F 100% 29.99 in 7.0 mi Calm Calm - N/A   Mostly Cloudy